This is the latest recevied weather packets stored in our database for station/object JS2WAD-13. If no packets are shown the sender has not sent any weather packets the latest 10 day(s).
| Time | Temp. | Humidity | Pressure | Rain* | Wind** | Luminosity | Snow |
|---|---|---|---|---|---|---|---|
| 1777933885 | 12.78° C | 63% | 911.2 hPa | 0 mm | - | 37 W/m² | - |
| 1777933585 | 12.78° C | 62% | 911.3 hPa | 0 mm | - | 39 W/m² | - |
| 1777933285 | 12.78° C | 65% | 911.2 hPa | 0 mm | - | 33 W/m² | - |
| 1777932985 | 12.78° C | 64% | 911.2 hPa | 0 mm | - | 32 W/m² | - |
| 1777932685 | 12.78° C | 64% | 911 hPa | 0 mm | - | 28 W/m² | - |
| 1777932385 | 12.78° C | 66% | 911 hPa | 0 mm | - | 26 W/m² | - |
| 1777932085 | 12.22° C | 66% | 910.9 hPa | 0 mm | - | 26 W/m² | - |
| 1777931785 | 12.22° C | 65% | 910.9 hPa | 0 mm | - | 25 W/m² | - |
| 1777931485 | 12.22° C | 69% | 910.8 hPa | 0 mm | - | 30 W/m² | - |
| 1777931185 | 12.22° C | 69% | 910.8 hPa | 0 mm | - | 32 W/m² | - |
| 1777930885 | 12.22° C | 73% | 910.7 hPa | 0 mm | - | 28 W/m² | - |
| 1777930585 | 12.22° C | 70% | 910.7 hPa | 0 mm | - | 26 W/m² | - |
| 1777930285 | 12.22° C | 67% | 910.6 hPa | 0 mm | - | 26 W/m² | - |
| 1777929985 | 12.22° C | 67% | 910.5 hPa | 0 mm | - | 16 W/m² | - |
| 1777929685 | 12.22° C | 69% | 910.5 hPa | 0 mm | - | 21 W/m² | - |
| 1777929385 | 12.22° C | 68% | 910.5 hPa | 0 mm | - | 26 W/m² | - |
| 1777929085 | 12.22° C | 69% | 910.3 hPa | 0 mm | - | 30 W/m² | - |
| 1777928785 | 12.22° C | 68% | 910.3 hPa | 0 mm | - | 32 W/m² | - |
| 1777928485 | 12.22° C | 74% | 910 hPa | 0 mm | - | 23 W/m² | - |
| 1777928185 | 11.67° C | 68% | 910 hPa | 0 mm | - | 19 W/m² | - |
| 1777927885 | 11.67° C | 67% | 909.9 hPa | 0 mm | - | 18 W/m² | - |
| 1777927585 | 11.67° C | 69% | 909.9 hPa | 0 mm | - | 16 W/m² | - |
| 1777927285 | 11.67° C | 69% | 909.8 hPa | 0 mm | - | 14 W/m² | - |
| 1777926985 | 11.67° C | 69% | 909.6 hPa | 0 mm | - | 12 W/m² | - |
| 1777926685 | 11.67° C | 68% | 909.5 hPa | 0 mm | - | 11 W/m² | - |
* Rain latest hour (hover to see other rain measurements)
** Current wind speed in m/s (hover to see current wind gust speed)